Key statistics
Satellite CZ-6A DEB at a glance.
Uptime
997
Days in orbit
Revolutions
≈ 16.1
Per day
Orbit
SSO
Sun Synchronous Orbit
Inclination
98.6
Latest
Satellite identification and parameters
Extended collection of information and parameters for CZ-6A DEB.
Object identification
Identified? True
Debris? True
Object name: CZ-6A DEB
International designator: 2022-151ND
Object number (NORAD): 54603
Object ID (CCSDS): 54603
Country: PEOPLES REPUBLIC OF CHINA (PRC)
Current information (Y/N): Y
RCS size: SMALL
Orbital parameters
Decay date: Aug. 4, 2025
Period: 89.686 minutes
Inclination: 98.6133 deg
SMA: 6637.088 km
Apoapsis: 272.17 km
Periapsis: 245.735 km
RAAN: 292.7898 deg
Eccentricy: 0.00199145
Argument of periapsis: 287.3615 deg
Mean anomaly: 72.5484 deg
Mean motion: 16.0559651 rev/day
Mean motion (dot): 0.07169223 rev/day2
B* drag term: 0.019353819 1/REarth
Two-line elements (TLE)
Creation date: Aug. 7, 2025, 2:11 a.m.
Reference frame: TEME
Reference center: EARTH
Epoch: Aug. 3, 2025, 3:31 a.m. UTC
TLE line 0: 0 CZ-6A DEB
TLE line 1: 1 54603U 22151ND 25215.14693962 .07169223 28806+0 19354-1 0 9990
TLE line 2: 2 54603 98.6133 292.7898 0019915 287.3615 72.5484 16.05596510 73549
Live tracking on map
Satellite CZ-6A DEB has decayed and is no longer in orbit. No tracking available.
In-orbit conjunctions
Satellite CZ-6A DEB has decayed and is no longer in orbit. No conjunctions available.
Associated space launch
Chinese satellite reported for atmospheric/ocean/environmental/spatial parameter research purposes, details TBD.
CZ-6A DEB was lifted into orbit during the mission ‘Long March 6A | Yunhai 3’, on board a Long March 6A space rocket.
The launch took place on Nov. 11, 2022, 10:52 p.m. from Launch Complex 9A.
For more information about the launch, click the button.
Long March 6A | Yunhai 3
Agency: N/A
Status: Launch Successful
Launch date: Nov. 11, 2022, 10:52 p.m. UTC
Rocket: Long March 6A
Launch pad: Launch Complex 9A
Location: Taiyuan Satellite Launch Center, People's Republic of China
...
Latest news about this satellite
There are no fresh news available about this satellite. Check back as we update our databases every day.
Newsletter sign-up
Weekly statistics, charts and insights to help you stay on top of the space industry.
